Location: Northern Prairie Star Party
(53.2167°N, 112.5333°W)
Time: 05:24:38
(UTC-06:00)

Amateur Radio Satellites - All Passes

Search period start: 23 August 2014 04:54
Search period end: 24 August 2014 04:54
Location: Northern Prairie Star Party, 53.2167°N, 112.5333°W

Satellite Date Start Highest point End Downlink Frequencies (MHz)
Time Altitude Azimuth
OPAL 23 Aug 04:55:16 05:00:17 69° 254° (WSW) 05:05:24 ?
Sapphire 23 Aug 05:05:24 05:10:24 39° 244° (WSW) 05:15:24 437.095 MHz 1200 baud AX-25 AFSK
TMSAT-1 23 Aug 05:30:13 05:35:25 58° 292° (WNW) 05:40:36 436.925 FM
PCSat 23 Aug 05:36:21 05:40:32 23° 250° (WSW) 05:44:42 145.825 MHz
JAS-1B 23 Aug 05:41:39 05:48:57 40° 305° (NW) 05:55:09 435.800 - 435.900 CW/SSB
AO-Echo 23 Aug 05:49:24 05:52:16 16° 308° (NW) 05:55:05 ?
Oscar 19 23 Aug 05:55:13 05:56:43 11° 316° (NW) 05:58:12 437.125 CW, 437.150 USB
AO-7 23 Aug 05:58:53 06:07:08 61° 104° (ESE) 06:15:17 29.400 - 29.500 MHz
ITAMSAT 1 23 Aug 06:07:11 06:10:13 16° 311° (NW) 06:13:16 435.822 SSB
Gurwin Techsat 1B 23 Aug 06:13:32 06:17:46 25° 304° (NW) 06:22:00 435.225 FM
Saudisat 1A 23 Aug 06:19:21 06:22:33 19° 3° (N) 06:25:46 436.775 MHz
KITSAT 1 23 Aug 06:19:34 06:26:47 34° 355° (N) 06:34:00 435.175 FM
Uribyol 2 23 Aug 06:19:55 06:22:11 13° 314° (NW) 06:24:27 436.500 FM
STRAND 1 23 Aug 06:25:31 06:30:17 41° 64° (ENE) 06:35:04 ?
Uosat F 23 Aug 06:30:44 06:35:44 72° 290° (WNW) 06:40:42 435.120 FM
AO-27 23 Aug 06:35:18 06:36:34 11° 317° (NW) 06:37:50 436.795 MHz FM
JAS-2 23 Aug 06:37:24 06:41:17 21° 89° (E) 06:45:10 435.800 - 435.900 CW/SSB, 435.910 FM
OPAL 23 Aug 06:38:15 06:40:10 12° 274° (W) 06:42:06 ?
Hamsat 23 Aug 06:43:12 06:46:48 24° 92° (E) 06:50:21 145.90 MHz
SO-50 23 Aug 06:57:13 07:01:29 43° 124° (SE) 07:05:51 436.795 FM
TMSAT-1 23 Aug 07:11:45 07:14:20 14° 313° (NW) 07:16:56 436.925 FM
JAS-1B 23 Aug 07:33:12 07:37:17 15° 331° (NNW) 07:41:04 435.800 - 435.900 CW/SSB
AO-7 23 Aug 07:52:01 07:59:45 45° 307° (NW) 08:07:27 29.400 - 29.500 MHz
Saudisat 1A 23 Aug 07:59:23 08:03:22 31° 27° (NNE) 08:07:20 436.775 MHz
UOSAT-12 23 Aug 08:04:11 08:07:42 22° 115° (ESE) 08:11:17 437.025 FM, 437.400 FM
STRAND 1 23 Aug 08:04:51 08:09:34 37° 264° (W) 08:14:18 ?
Uosat F 23 Aug 08:10:50 08:13:44 16° 310° (NW) 08:16:38 435.120 FM
KITSAT 1 23 Aug 08:16:43 08:24:21 42° 23° (NNE) 08:31:55 435.175 FM
Hamsat 23 Aug 08:18:46 08:23:01 49° 291° (WNW) 08:27:13 145.90 MHz
JAS-2 23 Aug 08:21:50 08:27:01 68° 290° (WNW) 08:32:13 435.800 - 435.900 CW/SSB, 435.910 FM
SO-67 23 Aug 08:36:16 08:39:41 52° 100° (E) 08:43:04 435.3500 MHz FM
SO-50 23 Aug 08:37:43 08:42:05 44° 326° (NW) 08:46:35 436.795 FM
HO-68 23 Aug 09:03:50 09:08:11 17° 83° (E) 09:12:30 435.675 MHz FM
RS-15 23 Aug 09:12:50 09:22:19 35° 108° (ESE) 09:31:41 29.354 - 29.394 USB, Beacon 29.352 USB
Saudisat 1A 23 Aug 09:38:55 09:43:21 73° 229° (SW) 09:47:44 436.775 MHz
UOSAT-12 23 Aug 09:42:42 09:47:23 80° 316° (NW) 09:52:09 437.025 FM, 437.400 FM
AO-7 23 Aug 09:45:29 09:50:37 18° 332° (NNW) 09:55:44 29.400 - 29.500 MHz
JAS-2 23 Aug 10:08:28 10:11:16 15° 312° (NW) 10:14:02 435.800 - 435.900 CW/SSB, 435.910 FM
SO-67 23 Aug 10:10:08 10:12:25 17° 299° (WNW) 10:14:42 435.3500 MHz FM
KITSAT 1 23 Aug 10:12:33 10:20:42 89° 49° (NE) 10:28:47 435.175 FM
SO-50 23 Aug 10:20:07 10:23:43 22° 350° (N) 10:27:24 436.795 FM
HO-68 23 Aug 10:50:05 10:57:15 70° 105° (ESE) 11:04:23 435.675 MHz FM
UKube-1 23 Aug 11:03:46 11:08:06 63° 103° (ESE) 11:12:24 145.840 MHz, 145.915 MHz
JAS-1B 23 Aug 11:07:29 11:11:14 13° 25° (NNE) 11:14:48 435.800 - 435.900 CW/SSB
Oscar 11 23 Aug 11:18:33 11:22:54 60° 101° (ESE) 11:27:14 145.825 FM, Beacon 2401.500 USB
Saudisat 1A 23 Aug 11:20:04 11:22:11 13° 249° (WSW) 11:24:17 436.775 MHz
FUNcube-1 23 Aug 11:21:45 11:25:40 30° 95° (E) 11:29:39 145.950 - 145.970 MHz USB
RS-15 23 Aug 11:22:29 11:33:32 87° 314° (NW) 11:44:34 29.354 - 29.394 USB, Beacon 29.352 USB
UOSAT-12 23 Aug 11:24:08 11:28:12 28° 339° (NNW) 11:32:19 437.025 FM, 437.400 FM
AO-7 23 Aug 11:37:37 11:40:13 12° 359° (N) 11:42:49 29.400 - 29.500 MHz
SO-50 23 Aug 12:01:58 12:05:44 23° 14° (NNE) 12:09:34 436.795 FM
KITSAT 1 23 Aug 12:08:38 12:15:14 29° 252° (WSW) 12:21:49 435.175 FM
Oscar 19 23 Aug 12:20:17 12:23:48 19° 52° (NE) 12:27:21 437.125 CW, 437.150 USB
ITAMSAT 1 23 Aug 12:35:26 12:37:59 14° 47° (NE) 12:40:33 435.822 SSB
HO-68 23 Aug 12:38:16 12:44:34 35° 307° (NW) 12:50:52 435.675 MHz FM
UKube-1 23 Aug 12:40:41 12:43:57 21° 302° (WNW) 12:47:11 145.840 MHz, 145.915 MHz
Uribyol 2 23 Aug 12:46:40 12:49:53 17° 50° (NE) 12:53:07 436.500 FM
JAS-1B 23 Aug 12:51:10 12:59:13 32° 49° (NE) 13:06:34 435.800 - 435.900 CW/SSB
Oscar 16 23 Aug 12:52:25 12:56:54 31° 60° (ENE) 13:01:25 437.025 USB, Beacon 2401.1428
Oscar 11 23 Aug 12:55:24 12:58:45 22° 301° (WNW) 13:02:05 145.825 FM, Beacon 2401.500 USB
FUNcube-1 23 Aug 12:58:04 13:02:11 40° 293° (WNW) 13:06:22 145.950 - 145.970 MHz USB
AO-27 23 Aug 13:00:45 13:04:28 20° 53° (NE) 13:08:12 436.795 MHz FM
UOSAT-12 23 Aug 13:06:08 13:09:44 21° 3° (N) 13:13:21 437.025 FM, 437.400 FM
AO-7 23 Aug 13:24:50 13:29:47 18° 27° (NNE) 13:34:43 29.400 - 29.500 MHz
RS-15 23 Aug 13:36:42 13:47:15 50° 345° (NNW) 13:57:56 29.354 - 29.394 USB, Beacon 29.352 USB
TMSAT-1 23 Aug 13:40:22 13:43:38 17° 50° (NE) 13:46:54 436.925 FM
SO-50 23 Aug 13:42:37 13:47:15 53° 37° (NE) 13:51:58 436.795 FM
AO-Echo 23 Aug 13:50:00 13:54:47 42° 65° (ENE) 13:59:26 ?
Oscar 19 23 Aug 13:57:19 14:02:29 86° 73° (ENE) 14:07:42 437.125 CW, 437.150 USB
ITAMSAT 1 23 Aug 14:11:27 14:16:32 59° 68° (ENE) 14:21:38 435.822 SSB
ISS 23 Aug 14:14:23 14:15:41 12° 140° (SE) 14:16:59 145.800 FM
Gurwin Techsat 1B 23 Aug 14:21:10 14:26:01 38° 62° (ENE) 14:30:53 435.225 FM
Uribyol 2 23 Aug 14:23:27 14:28:36 76° 71° (ENE) 14:33:47 436.500 FM
HO-68 23 Aug 14:27:31 14:30:20 13° 331° (NNW) 14:33:09 435.675 MHz FM
Oscar 16 23 Aug 14:31:02 14:36:04 52° 260° (W) 14:41:09 437.025 USB, Beacon 2401.1428
Uosat F 23 Aug 14:36:49 14:38:47 12° 46° (NE) 14:40:46 435.120 FM
AO-27 23 Aug 14:38:12 14:43:24 87° 253° (WSW) 14:48:38 436.795 MHz FM
JAS-1B 23 Aug 14:38:53 14:48:48 84° 70° (ENE) 14:57:47 435.800 - 435.900 CW/SSB
UOSAT-12 23 Aug 14:46:51 14:51:10 33° 27° (NNE) 14:55:28 437.025 FM, 437.400 FM
AO-7 23 Aug 15:12:54 15:20:32 42° 52° (NE) 15:28:11 29.400 - 29.500 MHz
TMSAT-1 23 Aug 15:17:29 15:22:45 73° 71° (ENE) 15:28:03 436.925 FM
SO-50 23 Aug 15:23:23 15:27:45 37° 238° (WSW) 15:32:11 436.795 FM
AO-Echo 23 Aug 15:29:00 15:33:39 35° 264° (W) 15:38:13 ?
MaSat-1 23 Aug 15:32:28 15:36:43 30° 109° (ESE) 15:41:12 437.345 MHz
Oscar 19 23 Aug 15:39:08 15:42:32 18° 273° (W) 15:45:59 437.125 CW, 437.150 USB
ISS 23 Aug 15:48:38 15:51:45 39° 159° (SSE) 15:54:53 145.800 FM
RS-15 23 Aug 15:51:33 16:02:10 51° 18° (NNE) 16:13:00 29.354 - 29.394 USB, Beacon 29.352 USB
ITAMSAT 1 23 Aug 15:52:08 15:56:25 26° 268° (W) 16:00:43 435.822 SSB
Gurwin Techsat 1B 23 Aug 16:00:55 16:05:58 43° 262° (W) 16:11:03 435.225 FM
Uribyol 2 23 Aug 16:04:56 16:08:41 20° 271° (W) 16:12:27 436.500 FM
Uosat F 23 Aug 16:11:42 16:16:34 53° 67° (ENE) 16:21:27 435.120 FM
AO-27 23 Aug 16:20:32 16:23:42 16° 274° (W) 16:26:52 436.795 MHz FM
UOSAT-12 23 Aug 16:27:00 16:31:46 76° 229° (SW) 16:36:28 437.025 FM, 437.400 FM
JAS-1B 23 Aug 16:31:26 16:40:03 34° 271° (W) 16:48:06 435.800 - 435.900 CW/SSB
JAS-2 23 Aug 16:56:27 17:01:13 24° 56° (NE) 17:05:37 435.800 - 435.900 CW/SSB, 435.910 FM
TMSAT-1 23 Aug 16:59:14 17:03:15 22° 271° (W) 17:07:16 436.925 FM
OPAL 23 Aug 16:59:31 17:03:16 20° 91° (E) 17:07:00 ?
AO-7 23 Aug 17:04:45 17:13:03 66° 254° (WSW) 17:21:22 29.400 - 29.500 MHz
MaSat-1 23 Aug 17:08:37 17:13:34 60° 310° (NW) 17:18:45 437.345 MHz
ISS 23 Aug 17:24:58 17:28:17 68° 179° (S) 17:31:36 145.800 FM
Hamsat 23 Aug 17:42:22 17:46:20 37° 66° (ENE) 17:50:21 145.90 MHz
Uosat F 23 Aug 17:51:23 17:55:39 28° 267° (W) 17:59:57 435.120 FM
HO-68 23 Aug 17:57:53 17:59:26 11° 24° (NNE) 18:01:00 435.675 MHz FM
RS-15 23 Aug 18:04:44 18:15:47 89° 227° (SW) 18:27:12 29.354 - 29.394 USB, Beacon 29.352 USB
UOSAT-12 23 Aug 18:08:29 18:11:11 15° 249° (WSW) 18:13:52 437.025 FM, 437.400 FM
Sapphire 23 Aug 18:14:53 18:15:40 10° 101° (E) 18:16:27 437.095 MHz 1200 baud AX-25 AFSK
OPAL 23 Aug 18:37:31 18:42:45 80° 291° (WNW) 18:47:59 ?
JAS-2 23 Aug 18:39:29 18:45:54 81° 255° (WSW) 18:51:36 435.800 - 435.900 CW/SSB, 435.910 FM
PCSat 23 Aug 18:41:49 18:45:31 19° 107° (ESE) 18:49:15 145.825 MHz
MaSat-1 23 Aug 18:47:53 18:51:44 21° 332° (NNW) 18:55:37 437.345 MHz
ISS 23 Aug 19:01:38 19:04:50 44° 198° (SSW) 19:08:02 145.800 FM
AO-7 23 Aug 19:02:24 19:07:32 17° 277° (W) 19:12:42 29.400 - 29.500 MHz
Oscar 10/S400 23 Aug 19:12:36 19:27:46 25° 141° (SE) 19:57:31 145.825 - 145.975 CW/USB, Beacon 145.810 USB
SO-67 23 Aug 19:15:07 19:18:28 47° 71° (ENE) 19:21:50 435.3500 MHz FM
Hamsat 23 Aug 19:18:31 19:22:22 31° 266° (W) 19:26:16 145.90 MHz
HO-68 23 Aug 19:39:04 19:44:56 29° 49° (NE) 19:50:49 435.675 MHz FM
Sapphire 23 Aug 19:52:40 19:57:55 54° 121° (ESE) 20:03:13 437.095 MHz 1200 baud AX-25 AFSK
STRAND 1 23 Aug 20:08:30 20:13:27 48° 99° (E) 20:18:22 ?
OPAL 23 Aug 20:17:24 20:20:56 19° 311° (NW) 20:24:29 ?
RS-15 23 Aug 20:17:37 20:26:56 34° 253° (WSW) 20:36:34 29.354 - 29.394 USB, Beacon 29.352 USB
PCSat 23 Aug 20:22:48 20:28:14 87° 128° (SE) 20:33:42 145.825 MHz
JAS-2 23 Aug 20:27:57 20:31:48 17° 273° (W) 20:35:25 435.800 - 435.900 CW/SSB, 435.910 FM
MaSat-1 23 Aug 20:28:24 20:30:46 13° 356° (N) 20:33:06 437.345 MHz
UKube-1 23 Aug 20:30:37 20:33:47 20° 57° (ENE) 20:36:57 145.840 MHz, 145.915 MHz
ISS 23 Aug 20:39:03 20:41:00 15° 217° (SW) 20:42:57 145.800 FM
Oscar 11 23 Aug 20:45:20 20:48:10 17° 56° (NE) 20:51:00 145.825 FM, Beacon 2401.500 USB
SO-67 23 Aug 20:49:28 20:51:47 17° 270° (W) 20:54:07 435.3500 MHz FM
HO-68 23 Aug 21:24:47 21:31:57 87° 251° (WSW) 21:39:10 435.675 MHz FM
Sapphire 23 Aug 21:36:25 21:41:33 42° 323° (NW) 21:46:43 437.095 MHz 1200 baud AX-25 AFSK
STRAND 1 23 Aug 21:48:00 21:52:32 33° 299° (WNW) 21:57:02 ?
UKube-1 23 Aug 22:05:15 22:09:35 68° 257° (WSW) 22:13:57 145.840 MHz, 145.915 MHz
MaSat-1 23 Aug 22:06:37 22:09:55 17° 20° (NNE) 22:13:06 437.345 MHz
PCSat 23 Aug 22:07:30 22:12:17 31° 331° (NNW) 22:17:06 145.825 MHz
Oscar 11 23 Aug 22:19:29 22:23:50 81° 256° (WSW) 22:28:13 145.825 FM, Beacon 2401.500 USB
FUNcube-1 23 Aug 22:24:18 22:28:20 50° 69° (ENE) 22:32:26 145.950 - 145.970 MHz USB
HO-68 23 Aug 23:15:20 23:20:41 22° 272° (W) 23:26:04 435.675 MHz FM
Sapphire 23 Aug 23:22:21 23:26:23 21° 348° (NNW) 23:30:26 437.095 MHz 1200 baud AX-25 AFSK
MaSat-1 23 Aug 23:43:32 23:48:23 42° 44° (NE) 23:52:47 437.345 MHz
PCSat 23 Aug 23:53:33 23:57:24 19° 356° (N) 00:01:15 145.825 MHz
Oscar 11 23 Aug 23:59:12 00:00:47 12° 275° (W) 00:02:21 145.825 FM, Beacon 2401.500 USB
FUNcube-1 24 Aug 00:01:47 00:05:02 22° 269° (W) 00:08:21 145.950 - 145.970 MHz USB
KITSAT 1 24 Aug 00:49:20 00:55:29 25° 105° (ESE) 01:01:39 435.175 FM
Sapphire 24 Aug 01:07:38 01:11:44 21° 14° (NNE) 01:15:50 437.095 MHz 1200 baud AX-25 AFSK
MaSat-1 24 Aug 01:20:51 01:25:31 41° 247° (WSW) 01:29:42 437.345 MHz
Saudisat 1A 24 Aug 01:30:19 01:34:20 35° 122° (ESE) 01:38:22 436.775 MHz
PCSat 24 Aug 01:38:11 01:42:39 25° 22° (NNE) 01:47:07 145.825 MHz
Oscar 19 24 Aug 02:03:21 02:07:08 20° 89° (E) 02:10:53 437.125 CW, 437.150 USB
ITAMSAT 1 24 Aug 02:19:40 02:22:00 13° 84° (E) 02:24:21 435.822 SSB
JAS-1B 24 Aug 02:20:44 02:25:21 17° 77° (ENE) 02:29:31 435.800 - 435.900 CW/SSB
Uribyol 2 24 Aug 02:30:51 02:34:12 17° 87° (E) 02:37:33 436.500 FM
Oscar 16 24 Aug 02:36:18 02:41:06 36° 96° (E) 02:45:52 437.025 USB, Beacon 2401.1428
KITSAT 1 24 Aug 02:41:43 02:49:49 82° 128° (SE) 02:57:57 435.175 FM
OPAL 24 Aug 02:44:06 02:47:03 16° 46° (NE) 02:50:02 ?
AO-27 24 Aug 02:45:33 02:49:29 21° 90° (E) 02:53:24 436.795 MHz FM
Sapphire 24 Aug 02:51:18 02:56:31 44° 38° (NE) 03:01:42 437.095 MHz 1200 baud AX-25 AFSK
Saudisat 1A 24 Aug 03:09:31 03:13:50 50° 323° (NW) 03:18:10 436.775 MHz
PCSat 24 Aug 03:21:37 03:27:04 66° 46° (NE) 03:32:28 145.825 MHz
TMSAT-1 24 Aug 03:27:50 03:31:28 19° 87° (E) 03:35:06 436.925 FM
AO-Echo 24 Aug 03:29:22 03:33:59 47° 99° (E) 03:38:30 ?
Oscar 19 24 Aug 03:41:51 03:47:05 77° 288° (WNW) 03:52:17 437.125 CW, 437.150 USB
ITAMSAT 1 24 Aug 03:57:16 04:02:28 73° 104° (ESE) 04:07:38 435.822 SSB
Uribyol 2 24 Aug 04:09:12 04:14:25 88° 287° (WNW) 04:19:37 436.500 FM
JAS-1B 24 Aug 04:09:55 04:17:46 74° 103° (ESE) 04:24:14 435.800 - 435.900 CW/SSB
Gurwin Techsat 1B 24 Aug 04:10:20 04:15:30 49° 99° (E) 04:20:37 435.225 FM
Oscar 16 24 Aug 04:15:39 04:20:34 43° 296° (WNW) 04:25:28 437.025 USB, Beacon 2401.1428
OPAL 24 Aug 04:20:04 04:25:04 66° 67° (ENE) 04:30:10 ?
AO-27 24 Aug 04:24:22 04:29:33 72° 290° (WNW) 04:34:42 436.795 MHz FM
Sapphire 24 Aug 04:34:50 04:40:04 49° 240° (WSW) 04:45:16 437.095 MHz 1200 baud AX-25 AFSK
KITSAT 1 24 Aug 04:38:17 04:45:59 44° 333° (NNW) 04:53:42 435.175 FM
